Location: Makakahi
(40.6833°S, 175.6000°E)
Time: 05:57:34
(UTC+00:00)

DMSP F15 (USA 147) - Pass Details

Date: 06 December 2024
Orbit: 827 x 842 km, 99.1° (Epoch: 18 January)

Event Time Altitude Azimuth Distance (km) Brightness Sun altitude
Rises 09:29:04 0° 188° (S) 3,433 9.4 -16.7°
Reaches altitude 10° 09:33:27 10° 221° (SW) 2,490 9.0 -17.2°
Maximum altitude 09:34:55 11° 236° (SW) 2,411 8.7 -17.3°
Drops below altitude 10° 09:36:22 10° 252° (WSW) 2,484 8.5 -17.5°
Sets 09:40:44 0° 285° (WNW) 3,408 8.6 -18.0°
